When you browse on this site, cookies collect data to enhance your experience and personalize the content and advertising you see.
Visit our Privacy Policy to learn more. By continuing to use the site, you agree to this use of cookies and data.
  • In Hungary
  • List of Countries
  • For 7 days
  • Water Temperature
  • Satellite Maps
  • Weather Map
  • News
  • Weather Widgets
  • user-avatar
    Login

    Hourly Weather Herāt

    Today, 14 December, Friday

    Time Temperature Precipitation Wind Pressure Humidity
    00:00 +10°C° 0 mm 3 mps 681 mmHg 29%
    01:00 +10°C° 0 mm 3 mps 681 mmHg 29%
    02:00 +9°C° 0 mm 3 mps 681 mmHg 28%
    03:00 +9°C° 0 mm 3 mps 681 mmHg 27%
    04:00 +9°C° 0 mm 3 mps 681 mmHg 27%
    05:00 +9°C° 0 mm 3 mps 681 mmHg 26%
    06:00 +9°C° 0 mm 3 mps 681 mmHg 26%
    07:00 +8°C° 0 mm 3 mps 682 mmHg 26%
    08:00 +10°C° 0 mm 3 mps 682 mmHg 23%
    09:00 +12°C° 0 mm 3 mps 683 mmHg 21%
    10:00 +14°C° 0 mm 3 mps 683 mmHg 19%
    11:00 +16°C° 0 mm 3 mps 683 mmHg 18%
    12:00 +17°C° 0 mm 3 mps 683 mmHg 18%
    13:00 +17°C° 0 mm 3 mps 683 mmHg 18%
    14:00 +17°C° 0 mm 2 mps 683 mmHg 20%
    15:00 +16°C° 0 mm 2 mps 683 mmHg 22%
    16:00 +16°C° 0 mm 1 mps 683 mmHg 24%
    17:00 +15°C° 0 mm 1 mps 684 mmHg 27%
    18:00 +13°C° 0 mm 1 mps 684 mmHg 30%
    19:00 +12°C° 0 mm 2 mps 684 mmHg 32%
    20:00 +10°C° 0 mm 2 mps 684 mmHg 34%
    21:00 +10°C° 0 mm 2 mps 684 mmHg 36%
    22:00 +9°C° 0 mm 2 mps 684 mmHg 38%
    23:00 +9°C° 0 mm 2 mps 683 mmHg 38%

    Tomorrow, 15 December, Saturday

    Time Temperature Precipitation Wind Pressure Humidity
    00:00 +9°C° 0 mm 2 mps 683 mmHg 38%
    01:00 +8°C° 0 mm 2 mps 683 mmHg 38%
    02:00 +9°C° 0 mm 1 mps 682 mmHg 37%
    03:00 +9°C° 0 mm 1 mps 682 mmHg 35%
    04:00 +8°C° 0 mm 1 mps 682 mmHg 34%
    05:00 +8°C° 0 mm 1 mps 682 mmHg 34%
    06:00 +8°C° 0 mm 1 mps 682 mmHg 33%
    07:00 +8°C° 0 mm 1 mps 682 mmHg 32%
    08:00 +10°C° 0 mm 1 mps 683 mmHg 28%
    09:00 +12°C° 0 mm 2 mps 683 mmHg 24%
    10:00 +15°C° 0 mm 2 mps 684 mmHg 20%
    11:00 +14°C° 0 mm 3 mps 684 mmHg 20%
    12:00 +16°C° 0 mm 3 mps 684 mmHg 19%
    13:00 +17°C° 0 mm 4 mps 684 mmHg 18%
    14:00 +17°C° 0 mm 3 mps 683 mmHg 20%
    15:00 +16°C° 0 mm 2 mps 683 mmHg 22%
    16:00 +16°C° 0 mm 2 mps 683 mmHg 23%
    17:00 +14°C° 0 mm 1 mps 684 mmHg 26%
    18:00 +13°C° 0 mm 1 mps 684 mmHg 29%
    19:00 +11°C° 0 mm 1 mps 684 mmHg 32%
    20:00 +11°C° 0 mm 1 mps 684 mmHg 35%
    21:00 +9°C° 0 mm 2 mps 684 mmHg 37%
    22:00 +9°C° 0 mm 2 mps 685 mmHg 40%
    23:00 +9°C° 0 mm 2 mps 685 mmHg 43%

    Day after tomorrow, 16 December, Sunday

    Time Temperature Precipitation Wind Pressure Humidity
    00:00 +8°C° 0 mm 2 mps 685 mmHg 46%
    01:00 +8°C° 0 mm 2 mps 685 mmHg 49%
    02:00 +7°C° 0 mm 2 mps 684 mmHg 49%
    03:00 +7°C° 0 mm 2 mps 684 mmHg 50%
    04:00 +7°C° 0 mm 2 mps 684 mmHg 50%
    05:00 +7°C° 0 mm 2 mps 684 mmHg 50%
    06:00 +7°C° 0 mm 1 mps 684 mmHg 49%
    07:00 +7°C° 0 mm 1 mps 684 mmHg 49%
    08:00 +9°C° 0 mm 1 mps 685 mmHg 42%
    09:00 +11°C° 0 mm 1 mps 685 mmHg 36%
    10:00 +13°C° 0 mm 1 mps 686 mmHg 29%
    11:00 +14°C° 0 mm 1 mps 686 mmHg 27%
    12:00 +15°C° 0 mm 1 mps 685 mmHg 24%
    13:00 +15°C° 0 mm 2 mps 685 mmHg 22%
    14:00 +15°C° 0 mm 2 mps 684 mmHg 24%
    15:00 +15°C° 0 mm 1 mps 684 mmHg 25%
    16:00 +15°C° 0 mm 1 mps 684 mmHg 27%
    17:00 +13°C° 0 mm 1 mps 684 mmHg 29%
    18:00 +12°C° 0 mm 1 mps 684 mmHg 31%
    19:00 +11°C° 0 mm 1 mps 683 mmHg 34%
    20:00 +11°C° 0 mm 1 mps 683 mmHg 32%
    21:00 +11°C° 0 mm 1 mps 683 mmHg 31%
    22:00 +10°C° 0 mm 2 mps 683 mmHg 29%
    23:00 +9°C° 0 mm 2 mps 683 mmHg 29%

    17 December, Monday

    Time Temperature Precipitation Wind Pressure Humidity
    00:00 +9°C° 0 mm 2 mps 683 mmHg 29%
    01:00 +9°C° 0 mm 2 mps 683 mmHg 29%
    02:00 +8°C° 0 mm 2 mps 683 mmHg 29%
    03:00 +8°C° 0 mm 2 mps 683 mmHg 29%
    04:00 +8°C° 0 mm 2 mps 683 mmHg 28%
    05:00 +8°C° 0 mm 2 mps 683 mmHg 28%
    06:00 +8°C° 0 mm 2 mps 683 mmHg 27%
    07:00 +7°C° 0 mm 2 mps 683 mmHg 26%
    08:00 +9°C° 0 mm 2 mps 684 mmHg 23%
    09:00 +12°C° 0 mm 1 mps 685 mmHg 20%
    10:00 +15°C° 0 mm 1 mps 685 mmHg 17%
    11:00 +15°C° 0 mm 1 mps 685 mmHg 17%
    12:00 +16°C° 0 mm 1 mps 684 mmHg 17%
    13:00 +16°C° 0 mm 1 mps 684 mmHg 17%
    14:00 +16°C° 0 mm 1 mps 684 mmHg 20%
    15:00 +16°C° 0 mm 1 mps 683 mmHg 22%
    16:00 +15°C° 0 mm 1 mps 683 mmHg 24%
    17:00 +14°C° 0 mm 1 mps 683 mmHg 26%
    18:00 +13°C° 0 mm 1 mps 683 mmHg 28%
    19:00 +11°C° 0 mm 1 mps 683 mmHg 30%
    20:00 +11°C° 0 mm 1 mps 683 mmHg 29%
    21:00 +11°C° 0 mm 1 mps 683 mmHg 29%
    22:00 +11°C° 0 mm 1 mps 683 mmHg 28%
    23:00 +10°C° 0 mm 1 mps 682 mmHg 28%

    18 December, Tuesday

    Time Temperature Precipitation Wind Pressure Humidity
    00:00 +10°C° 0 mm 1 mps 682 mmHg 27%
    01:00 +10°C° 0 mm 1 mps 682 mmHg 27%
    02:00 +10°C° 0 mm 1 mps 681 mmHg 26%
    03:00 +9°C° 0 mm 2 mps 681 mmHg 26%
    04:00 +8°C° 0 mm 2 mps 681 mmHg 25%
    05:00 +8°C° 0 mm 2 mps 681 mmHg 24%
    06:00 +8°C° 0 mm 2 mps 681 mmHg 23%
    07:00 +8°C° 0 mm 2 mps 681 mmHg 22%
    08:00 +10°C° 0 mm 2 mps 682 mmHg 19%
    09:00 +14°C° 0 mm 2 mps 682 mmHg 16%
    10:00 +16°C° 0 mm 2 mps 683 mmHg 13%
    11:00 +17°C° 0 mm 3 mps 682 mmHg 12%
    12:00 +18°C° 0 mm 4 mps 682 mmHg 12%
    13:00 +19°C° 0 mm 5 mps 681 mmHg 11%
    14:00 +18°C° 0 mm 4 mps 680 mmHg 12%
    15:00 +18°C° 0 mm 4 mps 680 mmHg 14%
    16:00 +17°C° 0 mm 3 mps 680 mmHg 15%
    17:00 +16°C° 0 mm 3 mps 679 mmHg 17%
    18:00 +13°C° 0 mm 3 mps 679 mmHg 19%
    19:00 +13°C° 0 mm 2 mps 679 mmHg 21%
    20:00 +11°C° 0 mm 3 mps 679 mmHg 21%
    21:00 +11°C° 0 mm 3 mps 678 mmHg 22%
    22:00 +10°C° 0 mm 3 mps 678 mmHg 22%
    23:00 +10°C° 0 mm 3 mps 678 mmHg 22%

    19 December, Wednesday

    Time Temperature Precipitation Wind Pressure Humidity
    00:00 +10°C° 0 mm 3 mps 678 mmHg 22%
    01:00 +10°C° 0 mm 3 mps 677 mmHg 22%
    02:00 +9°C° 0 mm 3 mps 677 mmHg 21%
    03:00 +9°C° 0 mm 3 mps 677 mmHg 21%
    04:00 +9°C° 0 mm 3 mps 677 mmHg 20%
    05:00 +9°C° 0 mm 3 mps 677 mmHg 20%
    06:00 +9°C° 0 mm 2 mps 678 mmHg 20%
    07:00 +9°C° 0 mm 2 mps 678 mmHg 20%
    08:00 +12°C° 0 mm 2 mps 679 mmHg 19%
    09:00 +12°C° 0 mm 3 mps 680 mmHg 18%
    10:00 +14°C° 0 mm 3 mps 681 mmHg 16%
    11:00 +14°C° 0 mm 4 mps 681 mmHg 18%
    12:00 +15°C° 0 mm 4 mps 681 mmHg 19%
    13:00 +15°C° 0 mm 4 mps 680 mmHg 21%
    14:00 +14°C° 0 mm 4 mps 681 mmHg 25%
    15:00 +14°C° 0 mm 4 mps 681 mmHg 30%
    16:00 +13°C° 0 mm 4 mps 681 mmHg 34%
    17:00 +12°C° 0 mm 3 mps 682 mmHg 40%
    18:00 +11°C° 0 mm 3 mps 682 mmHg 47%
    19:00 +9°C° 0 mm 3 mps 683 mmHg 53%
    20:00 +9°C° 0 mm 3 mps 683 mmHg 55%
    21:00 +8°C° 0 mm 2 mps 683 mmHg 57%
    22:00 +8°C° 0 mm 2 mps 684 mmHg 60%
    23:00 +7°C° 0 mm 2 mps 684 mmHg 60%
    Show more